Location: Castelnau-Barbarens
(43.5760°N, 0.7244°E)
Time: 16:43:20
(UTC+02:00)

ISS - Visible Passes

Search period start: 22 October 2019 00:00
Search period end: 31 October 2019 23:00
Orbit: 411 x 421 km, 51.6° (Epoch: 22 October)

Date Brightness Start Highest point End Pass type
(mag) Time Alt. Az. Time Alt. Az. Time Alt. Az.
23 Oct -1.1 07:35:25 10° S 07:38:00 20° SE 07:40:34 10° E visible
24 Oct -0.7 06:48:10 10° SSE 06:49:37 12° SE 06:51:04 10° ESE visible
25 Oct -3.0 07:34:02 10° SW 07:37:19 53° SE 07:40:37 10° ENE visible
26 Oct -2.1 06:46:45 17° SSW 06:48:48 31° SE 06:51:50 10° ENE visible
27 Oct -1.2 05:00:47 18° ESE 05:00:47 18° ESE 05:02:48 10° E visible
27 Oct -3.7 06:33:42 12° WSW 06:36:47 62° NNW 06:40:08 10° NE visible
28 Oct -3.8 05:47:33 57° SW 05:48:09 83° SSE 05:51:32 10° ENE visible
29 Oct -1.4 05:01:15 24° ENE 05:01:15 24° ENE 05:02:49 10° ENE visible
29 Oct -2.8 06:34:10 16° WNW 06:36:23 32° NNW 06:39:29 10° NE visible
30 Oct -3.2 05:47:45 44° NNW 05:47:45 44° NNW 05:50:53 10° NE visible
31 Oct -1.1 05:01:14 18° NE 05:01:14 18° NE 05:02:16 10° NE visible
31 Oct -2.2 06:34:08 14° NW 06:36:05 23° N 06:38:50 10° NE visible
